Regional Weather Roundup
Issued by NWS

Home | Current Version | Previous Version | Text Only | Print | Product List | Glossary Off
Versions: 1 2 3 4 5 6 7 8 9 10 11 12 13 14 15 16 17 18 19 20 21 22 23 24 25 26 27 28 29 30 31 32 33 34 35 36 37 38 39 40 41 42 43 44 45 46 47 48 49 50

000
ASUS43 KLMK 311010
RWRKY
KENTUCKY REGIONAL WEATHER ROUNDUP
NATIONAL WEATHER SERVICE LOUISVILLE KY
600 AM EDT THU JUL 31 2014

NOTE "FAIR" INDICATES FEW OR NO CLOUDS BELOW 12,000 FEET
WITH NO SIGNIFICANT WEATHER AND/OR OBSTRUCTIONS TO VISIBILITY.

KYZ001>023-026-027-061>063-070>075-311100-
WESTERN AND SOUTH CENTRAL KENTUCKY

CITY           SKY/WX    TMP DP  RH WIND       PRES   REMARKS
PADUCAH        MOCLDY    61  58  90 CALM      30.07S FOG
HENDERSON      PTCLDY    55  52  88 CALM      30.08R
OWENSBORO      PTCLDY    59  58  96 CALM      30.09S
HOPKINSVILLE   PTCLDY    60  58  93 SE2       30.08F
BOWLING GREEN  CLEAR     60  57  89 CALM      30.10R
GLASGOW        PTCLDY    57  57 100 CALM      30.10S FOG
$$

KYZ024-025-028>034-038-045-046-053-311100-
NORTH CENTRAL KENTUCKY

CITY           SKY/WX    TMP DP  RH WIND       PRES   REMARKS
LOUISVILLE/SDF PTCLDY    65  60  84 SW3       30.08S
LOUISVILLE/LOU CLEAR     62  59  90 CALM      30.09R
FORT KNOX      CLEAR     58  56  93 CALM      30.09R
$$

KYZ035>037-039>044-047>052-055>060-089>105-311100-
NORTHEAST KENTUCKY

CITY           SKY/WX    TMP DP  RH WIND       PRES   REMARKS
LEXINGTON      CLEAR     61  57  87 S3        30.10R
COVINGTON      CLEAR     63  59  87 SW5       30.08R
FRANKFORT      CLEAR     58  56  93 CALM      30.09R
$$

KYZ054-064>069-076>088-106>120-311100-
SOUTHEAST KENTUCKY

CITY           SKY/WX    TMP DP  RH WIND       PRES   REMARKS
JACKSON        PTCLDY    60  57  89 CALM      30.12R
LONDON         PTCLDY    60  56  86 CALM      30.13R
SOMERSET       CLOUDY    59  59 100 CALM      30.12S FOG
MIDDLESBORO    FOG       57  57 100 CALM      30.14S VSB 1/2
MONTICELLO     FOG       55  55 100 CALM      30.12S VSB 3/4
$$




USA.gov is the U.S. government's official web portal to all federal, state and local government web resources and services.